Time,TemperatureF,DewpointF,PressureIn,WindDirection,WindDirectionDegrees,WindSpeedMPH,WindSpeedGustMPH,Humidity,HourlyPrecipIn,Conditions,Clouds,dailyrainin,SoftwareType,DateUTC
2013-06-20 00:11:00,55.0,40.0,30.04,WSW,237,2.0,3.0,56,0.00,,,0.00,,2013-06-20 07:11:00,
2013-06-20 00:22:00,55.0,40.0,30.04,WSW,238,1.0,0.0,56,0.00,,,0.00,,2013-06-20 07:22:00,
2013-06-20 01:11:00,55.0,40.0,30.04,WSW,238,1.0,0.0,56,0.00,,,0.00,,2013-06-20 08:11:00,
2013-06-20 02:22:00,55.0,40.0,30.04,WSW,238,1.0,0.0,56,0.00,,,0.00,,2013-06-20 09:22:00,
2013-06-20 05:22:00,55.0,40.0,30.04,WSW,238,1.0,0.0,56,0.00,,,0.00,,2013-06-20 12:22:00,
2013-06-20 06:33:00,55.0,40.0,30.04,WSW,238,1.0,0.0,56,0.00,,,0.00,,2013-06-20 13:33:00,
2013-06-20 07:01:00,53.0,40.0,30.01,West,273,2.0,2.0,61,0.00,,,0.00,,2013-06-20 14:01:00,
2013-06-20 07:22:00,53.0,40.0,30.01,SW,229,1.0,3.0,61,0.00,,,0.00,,2013-06-20 14:22:00,
2013-06-20 07:42:00,53.0,40.0,30.01,SSW,193,1.0,4.0,61,0.00,,,0.00,,2013-06-20 14:42:00,
2013-06-20 09:22:00,56.0,42.0,30.00,SW,230,2.0,2.0,59,0.00,,,0.00,,2013-06-20 16:22:00,
2013-06-20 10:32:00,58.0,42.0,29.99,SSW,211,1.0,2.0,56,0.00,,,0.00,,2013-06-20 17:32:00,
2013-06-20 10:42:00,59.0,43.0,29.99,SSW,196,1.0,4.0,55,0.00,,,0.00,,2013-06-20 17:42:00,
2013-06-20 10:52:00,59.0,42.0,29.99,SSW,193,2.0,4.0,54,0.00,,,0.00,,2013-06-20 17:52:00,
2013-06-20 11:01:00,59.0,42.0,29.98,WSW,241,1.0,2.0,54,0.00,,,0.00,,2013-06-20 18:01:00,
2013-06-20 11:22:00,60.0,43.0,29.98,SE,132,3.0,3.0,53,0.00,,,0.00,,2013-06-20 18:22:00,
2013-06-20 11:33:00,60.0,43.0,29.99,South,171,3.0,4.0,53,0.00,,,0.00,,2013-06-20 18:33:00,
2013-06-20 11:42:00,61.0,44.0,29.98,SE,146,3.0,4.0,53,0.00,,,0.00,,2013-06-20 18:42:00,
2013-06-20 11:53:00,61.0,43.0,29.98,SSE,163,2.0,4.0,52,0.00,,,0.00,,2013-06-20 18:53:00,
2013-06-20 12:01:00,62.0,44.0,29.99,SSE,154,1.0,3.0,52,0.00,,,0.00,,2013-06-20 19:01:00,
2013-06-20 12:11:00,62.0,44.0,29.99,SSE,154,1.0,3.0,52,0.00,,,0.00,,2013-06-20 19:11:00,
2013-06-20 12:22:00,62.0,44.0,29.99,WSW,253,2.0,3.0,51,0.00,,,0.00,,2013-06-20 19:22:00,
2013-06-20 12:33:00,62.0,43.0,29.99,West,268,2.0,4.0,50,0.00,,,0.00,,2013-06-20 19:33:00,
2013-06-20 12:43:00,62.0,43.0,29.99,West,268,2.0,4.0,50,0.00,,,0.00,,2013-06-20 19:43:00,
2013-06-20 12:52:00,62.0,43.0,29.99,South,191,3.0,3.0,49,0.00,,,0.00,,2013-06-20 19:52:00,
2013-06-20 13:01:00,62.0,43.0,29.99,South,191,3.0,3.0,49,0.00,,,0.00,,2013-06-20 20:01:00,
2013-06-20 13:11:00,62.0,43.0,29.99,South,191,3.0,3.0,49,0.00,,,0.00,,2013-06-20 20:11:00,
2013-06-20 13:22:00,62.0,43.0,29.99,South,191,3.0,3.0,49,0.00,,,0.00,,2013-06-20 20:22:00,
2013-06-20 13:33:00,62.0,43.0,29.99,South,191,3.0,3.0,49,0.00,,,0.00,,2013-06-20 20:33:00,
2013-06-20 13:43:00,62.0,44.0,30.00,SSW,204,3.0,4.0,51,0.00,,,0.00,,2013-06-20 20:43:00,
2013-06-20 13:52:00,62.0,44.0,30.00,SSW,204,3.0,4.0,51,0.00,,,0.00,,2013-06-20 20:52:00,
2013-06-20 14:01:00,62.0,44.0,30.00,SSW,204,3.0,4.0,51,0.00,,,0.00,,2013-06-20 21:01:00,
2013-06-20 15:11:00,62.0,44.0,30.02,South,174,1.0,5.0,51,0.00,,,0.00,,2013-06-20 22:11:00,